When you browse on this site, cookies collect data to enhance your experience and personalize the content and advertising you see.
Visit our Privacy Policy to learn more. By continuing to use the site, you agree to this use of cookies and data.
  • In Hungary
  • List of Countries
  • For 7 days
  • Water Temperature
  • Weather Map
  • News
  • Weather Widgets
  • user-avatar
    Login

    Hourly Weather Ostrovyanskiy

    Today, 14 October, Monday

    Time Temperature Precipitation Wind Pressure Humidity
    00:00 +12°C° 0 mm 3 mps 755 mmHg 63%
    01:00 +11°C° 0 mm 3 mps 755 mmHg 64%
    02:00 +11°C° 0 mm 3 mps 755 mmHg 65%
    03:00 +10°C° 0 mm 3 mps 756 mmHg 66%
    04:00 +10°C° 0 mm 3 mps 756 mmHg 69%
    05:00 +10°C° 0 mm 2 mps 755 mmHg 71%
    06:00 +10°C° 0 mm 2 mps 755 mmHg 73%
    07:00 +12°C° 0 mm 2 mps 756 mmHg 70%
    08:00 +14°C° 0 mm 2 mps 756 mmHg 66%
    09:00 +15°C° 0 mm 2 mps 756 mmHg 62%
    10:00 +17°C° 0 mm 2 mps 756 mmHg 57%
    11:00 +19°C° 0 mm 2 mps 756 mmHg 53%
    12:00 +21°C° 0 mm 2 mps 756 mmHg 48%
    13:00 +21°C° 0 mm 2 mps 756 mmHg 46%
    14:00 +23°C° 0 mm 2 mps 756 mmHg 43%
    15:00 +24°C° 0 mm 1 mps 756 mmHg 41%
    16:00 +22°C° 0 mm 1 mps 755 mmHg 45%
    17:00 +18°C° 0 mm 0 mps 755 mmHg 50%
    18:00 +17°C° 0 mm 0 mps 755 mmHg 54%
    19:00 +16°C° 0 mm 0 mps 755 mmHg 56%
    20:00 +18°C° 0 mm 1 mps 755 mmHg 58%
    21:00 +16°C° 0 mm 1 mps 755 mmHg 60%
    22:00 +16°C° 0 mm 1 mps 755 mmHg 62%
    23:00 +15°C° 0 mm 1 mps 754 mmHg 64%

    Tomorrow, 15 October, Tuesday

    Time Temperature Precipitation Wind Pressure Humidity
    00:00 +15°C° 0 mm 1 mps 754 mmHg 65%
    01:00 +14°C° 0 mm 1 mps 754 mmHg 66%
    02:00 +14°C° 0 mm 1 mps 754 mmHg 67%
    03:00 +14°C° 0 mm 2 mps 754 mmHg 67%
    04:00 +14°C° 0 mm 1 mps 753 mmHg 67%
    05:00 +13°C° 0 mm 1 mps 753 mmHg 66%
    06:00 +13°C° 0 mm 1 mps 753 mmHg 66%
    07:00 +14°C° 0 mm 1 mps 753 mmHg 61%
    08:00 +16°C° 0 mm 2 mps 754 mmHg 55%
    09:00 +17°C° 0 mm 2 mps 754 mmHg 50%
    10:00 +19°C° 0 mm 2 mps 754 mmHg 44%
    11:00 +20°C° 0 mm 2 mps 753 mmHg 39%
    12:00 +23°C° 0 mm 2 mps 753 mmHg 33%
    13:00 +24°C° 0 mm 1 mps 753 mmHg 32%
    14:00 +24°C° 0 mm 1 mps 752 mmHg 31%
    15:00 +25°C° 0 mm 1 mps 752 mmHg 29%
    16:00 +23°C° 0 mm 1 mps 752 mmHg 33%
    17:00 +21°C° 0 mm 1 mps 752 mmHg 37%
    18:00 +18°C° 0 mm 0 mps 752 mmHg 41%
    19:00 +19°C° 0 mm 1 mps 752 mmHg 43%
    20:00 +19°C° 0 mm 1 mps 752 mmHg 44%
    21:00 +18°C° 0 mm 1 mps 752 mmHg 45%
    22:00 +18°C° 0 mm 1 mps 752 mmHg 46%
    23:00 +16°C° 0 mm 1 mps 752 mmHg 48%

    Day after tomorrow, 16 October, Wednesday

    Time Temperature Precipitation Wind Pressure Humidity
    00:00 +16°C° 0 mm 2 mps 752 mmHg 50%
    01:00 +15°C° 0 mm 2 mps 752 mmHg 52%
    02:00 +15°C° 0 mm 2 mps 752 mmHg 54%
    03:00 +15°C° 0 mm 2 mps 752 mmHg 56%
    04:00 +14°C° 0 mm 2 mps 752 mmHg 57%
    05:00 +14°C° 0 mm 2 mps 752 mmHg 59%
    06:00 +14°C° 0 mm 2 mps 752 mmHg 60%
    07:00 +15°C° 0 mm 2 mps 753 mmHg 57%
    08:00 +16°C° 0 mm 3 mps 753 mmHg 55%
    09:00 +18°C° 0 mm 3 mps 753 mmHg 52%
    10:00 +19°C° 0 mm 3 mps 753 mmHg 47%
    11:00 +21°C° 0 mm 3 mps 753 mmHg 42%
    12:00 +22°C° 0 mm 3 mps 753 mmHg 37%
    13:00 +24°C° 0 mm 3 mps 753 mmHg 37%
    14:00 +24°C° 0 mm 3 mps 753 mmHg 37%
    15:00 +23°C° 0 mm 4 mps 753 mmHg 36%
    16:00 +21°C° 0 mm 4 mps 753 mmHg 44%
    17:00 +20°C° 0 mm 4 mps 753 mmHg 51%
    18:00 +18°C° 0 mm 4 mps 753 mmHg 59%
    19:00 +17°C° 0 mm 4 mps 753 mmHg 63%
    20:00 +16°C° 0 mm 5 mps 754 mmHg 66%
    21:00 +15°C° 0 mm 5 mps 754 mmHg 70%
    22:00 +15°C° 0 mm 5 mps 754 mmHg 71%
    23:00 +14°C° 0 mm 5 mps 754 mmHg 71%

    17 October, Thursday

    Time Temperature Precipitation Wind Pressure Humidity
    00:00 +13°C° 0 mm 5 mps 753 mmHg 72%
    01:00 +13°C° 0 mm 5 mps 753 mmHg 73%
    02:00 +13°C° 0 mm 5 mps 754 mmHg 73%
    03:00 +12°C° 0 mm 5 mps 754 mmHg 73%
    04:00 +12°C° 0 mm 5 mps 754 mmHg 73%
    05:00 +10°C° 0 mm 5 mps 754 mmHg 73%
    06:00 +11°C° 0 mm 4 mps 754 mmHg 73%
    07:00 +12°C° 0 mm 5 mps 754 mmHg 70%
    08:00 +13°C° 0 mm 5 mps 754 mmHg 67%
    09:00 +15°C° 0 mm 5 mps 754 mmHg 63%
    10:00 +16°C° 0 mm 6 mps 754 mmHg 58%
    11:00 +19°C° 0 mm 6 mps 754 mmHg 54%
    12:00 +20°C° 0 mm 6 mps 754 mmHg 49%
    13:00 +21°C° 0 mm 6 mps 753 mmHg 48%
    14:00 +21°C° 0 mm 6 mps 753 mmHg 46%
    15:00 +21°C° 0 mm 6 mps 752 mmHg 45%
    16:00 +20°C° 0 mm 5 mps 752 mmHg 50%
    17:00 +17°C° 0 mm 5 mps 752 mmHg 55%
    18:00 +17°C° 0 mm 4 mps 752 mmHg 59%
    19:00 +15°C° 0 mm 4 mps 752 mmHg 62%
    20:00 +15°C° 0 mm 4 mps 752 mmHg 65%
    21:00 +14°C° 0 mm 4 mps 752 mmHg 67%
    22:00 +14°C° 0 mm 4 mps 751 mmHg 70%
    23:00 +13°C° 0 mm 4 mps 751 mmHg 72%

    18 October, Friday

    Time Temperature Precipitation Wind Pressure Humidity
    00:00 +13°C° 0 mm 4 mps 751 mmHg 74%
    01:00 +12°C° 0 mm 4 mps 751 mmHg 76%
    02:00 +12°C° 0 mm 3 mps 751 mmHg 79%
    03:00 +11°C° 0 mm 3 mps 750 mmHg 81%
    04:00 +11°C° 0 mm 3 mps 750 mmHg 83%
    05:00 +10°C° 0 mm 3 mps 750 mmHg 85%
    06:00 +10°C° 0 mm 3 mps 750 mmHg 87%
    07:00 +11°C° 0 mm 3 mps 750 mmHg 82%
    08:00 +12°C° 0 mm 3 mps 750 mmHg 76%
    09:00 +14°C° 0 mm 4 mps 750 mmHg 71%
    10:00 +16°C° 0 mm 3 mps 750 mmHg 62%
    11:00 +18°C° 0 mm 3 mps 750 mmHg 53%
    12:00 +20°C° 0 mm 3 mps 750 mmHg 44%
    13:00 +21°C° 0 mm 3 mps 750 mmHg 42%
    14:00 +21°C° 0 mm 3 mps 750 mmHg 39%
    15:00 +23°C° 0 mm 2 mps 750 mmHg 37%
    16:00 +20°C° 0 mm 2 mps 750 mmHg 41%
    17:00 +19°C° 0 mm 2 mps 750 mmHg 46%
    18:00 +17°C° 0 mm 2 mps 750 mmHg 50%
    19:00 +16°C° 0 mm 2 mps 750 mmHg 52%
    20:00 +16°C° 0 mm 3 mps 751 mmHg 54%
    21:00 +14°C° 0 mm 3 mps 751 mmHg 55%
    22:00 +14°C° 0 mm 3 mps 751 mmHg 57%
    23:00 +13°C° 0 mm 3 mps 751 mmHg 58%

    19 October, Saturday

    Time Temperature Precipitation Wind Pressure Humidity
    00:00 +13°C° 0 mm 3 mps 751 mmHg 59%
    01:00 +12°C° 0 mm 3 mps 752 mmHg 61%
    02:00 +12°C° 0 mm 3 mps 752 mmHg 63%
    03:00 +12°C° 0 mm 4 mps 752 mmHg 65%
    04:00 +11°C° 0 mm 4 mps 753 mmHg 71%
    05:00 +10°C° 0 mm 5 mps 753 mmHg 77%
    06:00 +9°C° 0 mm 5 mps 753 mmHg 84%
    07:00 +10°C° 0 mm 5 mps 754 mmHg 83%
    08:00 +11°C° 0 mm 6 mps 754 mmHg 82%
    09:00 +11°C° 0 mm 6 mps 754 mmHg 81%
    10:00 +13°C° 0 mm 6 mps 755 mmHg 74%
    11:00 +14°C° 0 mm 6 mps 755 mmHg 67%
    12:00 +15°C° 0 mm 6 mps 755 mmHg 60%
    13:00 +16°C° 0 mm 6 mps 755 mmHg 58%
    14:00 +16°C° 0 mm 6 mps 755 mmHg 56%
    15:00 +16°C° 0 mm 6 mps 754 mmHg 54%
    16:00 +15°C° 0 mm 6 mps 754 mmHg 56%
    17:00 +14°C° 0 mm 5 mps 755 mmHg 58%
    18:00 +13°C° 0 mm 5 mps 755 mmHg 60%
    19:00 +12°C° 0 mm 5 mps 755 mmHg 59%
    20:00 +10°C° 0 mm 5 mps 755 mmHg 57%
    21:00 +10°C° 0 mm 6 mps 755 mmHg 55%
    22:00 +10°C° 0 mm 5 mps 755 mmHg 54%
    23:00 +9°C° 0 mm 5 mps 755 mmHg 54%
    Show more